Regional Weather Roundup
Issued by NWS

Home | Current Version | Previous Version | Graphics & Text | Print | Product List | Glossary On
Versions: 1 2 3 4 5 6 7 8 9 10 11 12 13 14 15 16 17 18 19 20 21 22 23 24 25 26 27 28 29 30 31 32 33 34 35 36 37 38 39 40 41 42 43 44 45 46 47 48 49 50
000
ASUS43 KOAX 202310
RWRNE

WEATHER ROUNDUP FOR NEBRASKA
NATIONAL WEATHER SERVICE OMAHA NE
500 PM CST SAT DEC 20 2014

NOTES: SATELLITE DATA IS BEING USED TO AUGMENT CLOUD COVER ABOVE
       12000 FEET.
       "FAIR" INDICATES FEW OR NO CLOUDS BELOW 12,000 FEET WITH NO
       SIGNIFICANT WEATHER AND/OR OBSTRUCTIONS TO VISIBILITY.

  * THESE STATIONS DO NOT REPORT WEATHER SUCH AS RAIN...SNOW OR FOG.

NEZ001>004-019>022-054>056-210000-
NEBRASKA PANHANDLE

CITY           SKY/WX    TMP DP  RH WIND       PRES   REMARKS
SCOTTSBLUFF    CLEAR     38  28  67 CALM      29.92S
ALLIANCE       PTCLDY    38  30  73 W6        29.91S WCI  33
KIMBALL        PTCLDY    44  25  46 NW8       29.91S
SIDNEY         CLEAR     42  27  55 NW3       29.95R
$$

NEZ057>060-069>072-079>082-210000-
SOUTHWEST NEBRASKA

CITY           SKY/WX    TMP DP  RH WIND       PRES   REMARKS
NORTH PLATTE   CLOUDY    37  29  72 CALM      29.94S
IMPERIAL       CLOUDY    45  29  53 W5        29.95F
LEXINGTON      CLOUDY    37  33  85 S5        29.96S WCI  33
MCCOOK         CLOUDY    44  30  57 CALM      29.97S
OGALLALA       PTCLDY    36  30  79 W7        29.93F WCI  30
$$

NEZ005>010-023>029-035>040-094-210000-
NORTH CENTRAL NEBRASKA

CITY           SKY/WX    TMP DP  RH WIND       PRES   REMARKS
VALENTINE      CLOUDY    37  30  75 W5        29.90S WCI  33
AINSWORTH      MOCLDY    33  28  83 S6        29.90S WCI  27
BROKEN BOW     CLOUDY    40  30  67 CALM      29.93S
O`NEILL        MOCLDY    30  30  99 S6        29.95S WCI  24
THEDFORD       PTCLDY    40  31  69 W5        29.91S
$$

NEZ041-046>049-061>064-073>077-083>087-210000-
SOUTH CENTRAL NEBRASKA

CITY           SKY/WX    TMP DP  RH WIND       PRES   REMARKS
GRAND ISLAND   CLOUDY    35  32  88 SE6       29.99F WCI  30
AURORA         CLOUDY    32  32 100 SE7       30.00F FOG     WCI  26
HASTINGS       CLOUDY    41  32  70 SE7       29.98S
HEBRON         MOCLDY    36  33  88 SE5       30.03F FOG     WCI  32
HOLDREGE       MOCLDY    37  32  85 S6        29.97S WCI  32
KEARNEY *      MOCLDY    34  28  80 SE7       29.98S WCI  28
YORK           CLOUDY    32  32 100 CALM      30.03S FOG
$$

NEZ011>018-030>034-042>045-210000-
NORTHEAST NEBRASKA

CITY           SKY/WX    TMP DP  RH WIND       PRES   REMARKS
NORFOLK        CLOUDY    33  31  92 S12       30.01S FOG     WCI  24
ALBION         CLOUDY    32  30  93 SE9       29.99F FOG     WCI  24
BLAIR          FOG       33  32  96 SE6       30.06S VSB 1   WCI  28
COLUMBUS *     CLOUDY    30  27  86 SE8       30.04F WCI  23
FREMONT        CLOUDY    33  33  99 S6        30.06S FOG     WCI  28
TEKAMAH        CLOUDY    33  31  92 S9        30.08R FOG     WCI  25
WAYNE          CLOUDY    32  31  97 S10       30.04F FOG     WCI  23
$$

NEZ050>053-065>068-078-088>093-210000-
SOUTHEAST NEBRASKA

CITY           SKY/WX    TMP DP  RH WIND       PRES   REMARKS
LINCOLN        CLOUDY    36  31  82 S7        30.08R HAZE    WCI  30
OMAHA EPPLEY   CLOUDY    34  32  92 S10       30.09S FOG     WCI  26
BEATRICE       CLOUDY    35  33  92 S9        30.06S FOG     WCI  28
FALLS CITY     CLOUDY    36  33  89 CALM      30.09S FOG
NEBRASKA CITY  CLOUDY    35  34  98 S6        30.08S FOG     WCI  30
PLATTSMOUTH    CLOUDY    34  32  92 SE5       30.07S FOG     WCI  30
$$

NEZ044-045-051>053-067-210000-
OMAHA AREA

CITY           SKY/WX    TMP DP  RH WIND       PRES   REMARKS
OMAHA EPPLEY   CLOUDY    34  32  92 S10       30.09S FOG     WCI  26
BLAIR          FOG       33  32  96 SE6       30.06S VSB 1   WCI  28
FREMONT        CLOUDY    33  33  99 S6        30.06S FOG     WCI  28
MILLARD        CLOUDY    34  32  92 SE9       30.07S FOG     WCI  27
OFFUTT AFB     CLOUDY    34  32  93 SE6       30.08S WCI  29
PLATTSMOUTH    CLOUDY    34  32  92 SE5       30.07S FOG     WCI  30
WAHOO          CLOUDY    33  31  93 S6        30.06S FOG     WCI  27
$$


USA.gov is the U.S. government's official web portal to all federal, state and local government web resources and services.